Weather History for KVYS - August, 2013

Change the Weather History Date:

Tuesday, August 13, 2013

  Actual Average Record
Temperature  
Mean Temperature 64 °F -  
Max Temperature 72 °F 83 °F 95 °F (1988)
Min Temperature 56 °F 60 °F 44 °F (2004)
Degree Days  
Heating Degree Days 1    
Growing Degree Days 14 (Base 50)    
Moisture  
Dew Point 52 °F    
Average Humidity 66    
Maximum Humidity 90    
Minimum Humidity 37    
Precipitation  
Precipitation 0.00 in - - ()
Sea Level Pressure  
Sea Level Pressure 30.08 in    
Wind  
Wind Speed 8 mph (NNE)    
Max Wind Speed 14 mph    
Max Gust Speed 21 mph    
Visibility 10 miles    
Events      
Averages and records for this station are not official NWS values.
T = Trace of Precipitation, MM = Missing Value Source: NWS Daily Summary

Daily Weather History Graph

Daily Weather History Graph

Search for Another Location

Airport or City:

Trip Planner

Search our weather history database for the weather conditions in past years. The results will help you decide how hot, cold, wet, or windy it might be!

Date:

Astronomy

Aug. 13, 2013 Rise Set
Actual Time 6:03 AM CDT 7:58 PM CDT
Civil Twilight 5:34 AM CDT 8:27 PM CDT
Nautical Twilight 4:57 AM CDT 9:04 PM CDT
Astronomical Twilight 4:18 AM CDT 9:43 PM CDT
Moon 1:03 PM CDT (8/13) 11:27 PM CDT (8/13)
Length of Visible Light 14h 53m
Length of Day
13h 54m
Waxing Crescent, 42% of the Moon is Illuminated
Aug 13
Waxing Crescent
Aug 14
First Quarter
Aug 20
Full
Aug 28
Last Quarter
Sep 5
New

Hourly Weather History & Observations

Time (CDT) Temp. Dew Point Humidity Pressure Visibility Wind Dir Wind Speed Gust Speed Precip Events Conditions
12:15 AM 65.3 °F 60.1 °F 83% 29.97 in 10.0 mi NNW 4.6 mph - N/A   Clear
12:35 AM 64.9 °F 60.3 °F 85% 29.97 in 10.0 mi NNW 5.8 mph - N/A   Clear
12:55 AM 63.3 °F 59.2 °F 86% 29.97 in 10.0 mi NW 6.9 mph - N/A   Clear
1:15 AM 63.5 °F 59.0 °F 85% 29.97 in 10.0 mi NNW 6.9 mph - N/A   Clear
1:35 AM 63.5 °F 59.0 °F 85% 29.96 in 10.0 mi NNW 5.8 mph - N/A   Clear
1:55 AM 63.1 °F 58.5 °F 85% 29.97 in 10.0 mi NNW 5.8 mph - N/A   Clear
2:15 AM 62.6 °F 57.9 °F 85% 29.96 in 10.0 mi North 5.8 mph - N/A   Clear
2:35 AM 62.6 °F 57.7 °F 84% 29.97 in 10.0 mi North 6.9 mph - N/A   Clear
2:55 AM 61.2 °F 56.7 °F 85% 29.97 in 10.0 mi NNW 6.9 mph - N/A   Clear
3:15 AM 61.2 °F 57.2 °F 87% 29.98 in 10.0 mi NNW 6.9 mph - N/A   Clear
3:35 AM 61.0 °F 56.7 °F 86% 29.98 in 10.0 mi North 5.8 mph - N/A   Clear
3:55 AM 60.4 °F 56.5 °F 87% 29.98 in 10.0 mi North 8.1 mph - N/A   Clear
4:15 AM 60.8 °F 57.2 °F 88% 29.98 in 10.0 mi NNE 9.2 mph - N/A   Clear
4:35 AM 60.4 °F 57.4 °F 90% 29.99 in 10.0 mi NNE 8.1 mph - N/A   Clear
4:55 AM 62.4 °F 59.4 °F 90% 29.99 in 10.0 mi NE 10.4 mph - N/A   Clear
5:15 AM 61.7 °F 58.6 °F 90% 30.00 in 10.0 mi NNE 10.4 mph - N/A   Clear
5:35 AM 61.7 °F 58.5 °F 89% 30.01 in 10.0 mi NNE 8.1 mph - N/A   Clear
5:55 AM 61.0 °F 57.2 °F 87% 30.03 in 10.0 mi NNE 10.4 mph - N/A   Clear
6:15 AM 60.3 °F 57.2 °F 90% 30.03 in 10.0 mi NNE 9.2 mph - N/A   Clear
6:35 AM 59.9 °F 56.7 °F 89% 30.03 in 10.0 mi NNE 11.5 mph - N/A   Clear
6:55 AM 60.3 °F 55.8 °F 85% 30.03 in 10.0 mi NNE 11.5 mph 18.4 mph N/A   Clear
7:15 AM 59.9 °F 55.6 °F 86% 30.05 in 10.0 mi NNE 10.4 mph 16.1 mph N/A   Clear
7:35 AM 60.3 °F 55.2 °F 83% 30.05 in 10.0 mi NNE 11.5 mph - N/A   Clear
7:55 AM 60.6 °F 54.3 °F 80% 30.06 in 10.0 mi NE 10.4 mph 16.1 mph N/A   Clear
8:15 AM 61.2 °F 54.1 °F 78% 30.07 in 10.0 mi NE 11.5 mph - N/A   Clear
8:35 AM 61.7 °F 54.3 °F 77% 30.08 in 10.0 mi NE 11.5 mph - N/A   Clear
8:55 AM 62.6 °F 54.3 °F 74% 30.09 in 10.0 mi NNE 11.5 mph - N/A   Clear
9:15 AM 63.0 °F 54.0 °F 72% 30.09 in 10.0 mi NNE 11.5 mph - N/A   Clear
9:35 AM 63.5 °F 53.8 °F 71% 30.09 in 10.0 mi NE 10.4 mph - N/A   Clear
9:55 AM 64.0 °F 53.4 °F 68% 30.11 in 10.0 mi NNE 9.2 mph - N/A   Clear
10:15 AM 65.8 °F 53.8 °F 65% 30.11 in 10.0 mi NNE 11.5 mph - N/A   Clear
10:35 AM 66.2 °F 53.8 °F 64% 30.11 in 10.0 mi NE 9.2 mph - N/A   Clear
10:55 AM 66.9 °F 51.8 °F 58% 30.11 in 10.0 mi NE 9.2 mph - N/A   Scattered Clouds
11:15 AM 67.3 °F 49.5 °F 53% 30.12 in 10.0 mi NE 11.5 mph 16.1 mph N/A   Clear
11:35 AM 68.2 °F 48.9 °F 50% 30.12 in 10.0 mi NE 13.8 mph - N/A   Clear
11:55 AM 69.1 °F 46.6 °F 45% 30.12 in 10.0 mi NE 10.4 mph 16.1 mph N/A   Clear
12:15 PM 68.7 °F 46.9 °F 46% 30.13 in 10.0 mi NE 11.5 mph - N/A   Clear
12:35 PM 70.0 °F 47.1 °F 44% 30.13 in 10.0 mi North 10.4 mph - N/A   Clear
12:55 PM 70.0 °F 45.7 °F 42% 30.13 in 10.0 mi NNE 11.5 mph 20.7 mph N/A   Clear
1:15 PM 69.8 °F 45.5 °F 42% 30.13 in 10.0 mi North 10.4 mph - N/A   Clear
1:35 PM 70.7 °F 44.6 °F 39% 30.13 in 10.0 mi North 12.7 mph - N/A   Clear
1:55 PM 70.9 °F 45.3 °F 40% 30.13 in 10.0 mi North 9.2 mph 17.3 mph N/A   Clear
2:15 PM 71.6 °F 45.9 °F 40% 30.12 in 10.0 mi NNE 11.5 mph 16.1 mph N/A   Clear
2:35 PM 71.6 °F 44.2 °F 37% 30.12 in 10.0 mi North 9.2 mph - N/A   Clear
2:55 PM 71.8 °F 46.0 °F 40% 30.12 in 10.0 mi NNE 10.4 mph - N/A   Scattered Clouds
3:15 PM 71.2 °F 45.5 °F 40% 30.12 in 10.0 mi NNE 10.4 mph - N/A   Mostly Cloudy
3:35 PM 72.1 °F 44.8 °F 37% 30.12 in 10.0 mi NNW 9.2 mph - N/A   Scattered Clouds
3:55 PM 71.4 °F 45.5 °F 39% 30.12 in 10.0 mi NNE 11.5 mph 16.1 mph N/A   Scattered Clouds
4:15 PM 71.6 °F 45.0 °F 38% 30.11 in 10.0 mi NNE 9.2 mph - N/A   Scattered Clouds
4:35 PM 71.6 °F 45.5 °F 39% 30.11 in 10.0 mi NNE 10.4 mph - N/A   Scattered Clouds
4:55 PM 69.8 °F 45.5 °F 42% 30.11 in 10.0 mi North 8.1 mph - N/A   Mostly Cloudy
5:15 PM 70.0 °F 45.3 °F 41% 30.11 in 10.0 mi NNE 10.4 mph - N/A   Scattered Clouds
5:35 PM 69.8 °F 46.8 °F 44% 30.11 in 10.0 mi NNE 9.2 mph - N/A   Mostly Cloudy
5:55 PM 70.0 °F 48.2 °F 46% 30.11 in 10.0 mi NE 10.4 mph - N/A   Scattered Clouds
6:55 PM 68.4 °F 49.1 °F 50% 30.11 in 10.0 mi NNE 5.8 mph - N/A   Clear
7:15 PM 67.3 °F 48.2 °F 50% 30.11 in 10.0 mi North 8.1 mph - N/A   Clear
7:35 PM 65.5 °F 49.1 °F 55% 30.11 in 10.0 mi NNE 5.8 mph - N/A   Clear
7:55 PM 63.9 °F 50.0 °F 61% 30.11 in 10.0 mi NNE 5.8 mph - N/A   Clear
8:15 PM 62.6 °F 49.5 °F 62% 30.11 in 10.0 mi North 4.6 mph - N/A   Clear
8:35 PM 61.0 °F 50.2 °F 68% 30.12 in 10.0 mi Calm Calm - N/A   Clear
8:55 PM 61.5 °F 50.0 °F 66% 30.13 in 10.0 mi Calm Calm - N/A   Clear
9:15 PM 61.2 °F 50.0 °F 67% 30.13 in 10.0 mi North 3.5 mph - N/A   Clear
9:35 PM 60.6 °F 49.8 °F 68% 30.14 in 10.0 mi North 4.6 mph - N/A   Clear
9:55 PM 59.9 °F 50.0 °F 70% 30.14 in 10.0 mi North 4.6 mph - N/A   Clear
10:15 PM 59.9 °F 50.2 °F 70% 30.14 in 10.0 mi North 5.8 mph - N/A   Clear
10:35 PM 58.5 °F 49.5 °F 72% 30.14 in 10.0 mi North 4.6 mph - N/A   Clear
10:55 PM 57.9 °F 49.8 °F 74% 30.14 in 10.0 mi North 3.5 mph - N/A   Clear
11:15 PM 56.7 °F 49.3 °F 76% 30.15 in 10.0 mi North 4.6 mph - N/A   Clear
11:35 PM 57.2 °F 49.6 °F 76% 30.15 in 10.0 mi North 4.6 mph - N/A   Clear
11:55 PM 56.3 °F 49.3 °F 77% 30.16 in 10.0 mi North 4.6 mph - N/A   Clear